Location: Bremen
(53.0793°N, 8.8017°E)
Time: 02:18:52
(UTC+01:00)

Vanguard 1 Rocket - Pass Details

Date: 11 December 2021
Orbit: 651 x 4224 km, 34.3° (Epoch: 18 January)

Event Time Altitude Azimuth Distance (km) Brightness Sun altitude
Rises 03:40:26 0° 245° (WSW) 4,427 - -41.6°
Reaches altitude 10° 03:43:15 10° 235° (SW) 3,814 - -41.2°
Exits shadow 03:51:40 33° 181° (S) 3,378 10.0 -39.9°
Maximum altitude 03:52:15 33° 177° (S) 3,434 10.1 -39.9°
Drops below altitude 10° 04:07:28 10° 123° (ESE) 6,459 12.1 -37.6°
Sets 04:14:13 0° 116° (ESE) 7,951 12.8 -36.6°
